Flag for Germany Weather past 2 weeks in Weyhe, Lower Saxony, Germany

Now
72 °F

Clear.


Feels Like: 77 °F
Forecast: 67 / 92 °F
Wind: 12 mph from Southeast

Location: Bremen Airport

Current Time: Jul 2, 2015 at 1:27:17 AM

Latest Report: Jul 2, 2015 at 12:50 AM


Visibility: 10 mi

Pressure: 30.12 "Hg

Humidity: 50%

Dew point: 52 °F

Location of WeyheLocation

Historic Weather in Weyhe — Graph

°F

Weyhe temperature yesterday

Maximum temperature yesterday: 84 °F (at 3:20 PM)
Minimum temperature yesterday: 55 °F (at 4:50 AM)
Average temperature yesterday: 73 °F

Past Weeks' High & Low Weather Summary

 TemperatureHumidityPressure
High84 °F (Jul 1, 3:20 PM)100% (Jun 17, 1:50 AM)30.27 "Hg (Jun 17, 1:50 AM)
Low41 °F (Jun 17, 4:20 AM)31% (Jul 1, 3:20 PM)29.65 "Hg (Jun 22, 7:50 PM)
Average60 °F75%30.03 "Hg
* Reported Jun 16 11:20 PM — Jul 1 11:50 PM, Weyhe, Weather by CustomWeather, © 2015

Note: Actual official high and low records may vary slightly from our data, if they occured in-between our weather recording intervals... More about our weather records

Advertising

Weyhe weather history for previous 24 hours

 ConditionsComfort  
Time TempWeatherWind HumidityBarometerVisibility
11:50 PM
Wed, Jul 1
73 °FClear.10 mph47%30.12 "Hg10 mi
10:50 PM73 °FSunny.8 mph47%30.12 "Hg10 mi
10:20 PM75 °FSunny.9 mph44%30.12 "Hg10 mi
9:50 PM77 °FSunny.7 mph44%30.12 "Hg10 mi
9:20 PM79 °FSunny.7 mph39%30.09 "Hg10 mi
8:50 PM82 °FSunny.8 mph32%30.09 "Hg10 mi
8:20 PM82 °FPassing clouds.8 mph32%30.09 "HgN/A
7:50 PM84 °FSunny.12 mph33%30.09 "Hg10 mi
7:20 PM84 °FSunny.12 mph31%30.09 "Hg10 mi
6:50 PM84 °FSunny.13 mph31%30.09 "Hg10 mi
6:20 PM84 °FPassing clouds.13 mph31%30.09 "HgN/A
5:50 PM84 °FPassing clouds.15 mph31%30.09 "HgN/A
5:20 PM84 °FPassing clouds.13 mph31%30.12 "HgN/A
4:50 PM84 °FPassing clouds.13 mph33%30.12 "HgN/A
4:20 PM84 °FPassing clouds.13 mph33%30.12 "HgN/A
3:50 PM84 °FPassing clouds.10 mph31%30.12 "HgN/A
3:20 PM84 °FPassing clouds.14 mph31%30.12 "HgN/A
2:50 PM82 °FPassing clouds.13 mph32%30.12 "HgN/A
2:20 PM82 °FPassing clouds.13 mph32%30.15 "HgN/A
1:50 PM82 °FPassing clouds.13 mph32%30.15 "HgN/A
1:20 PM81 °FSunny.13 mph34%30.15 "Hg10 mi
12:50 PM81 °FPassing clouds.13 mph32%30.15 "HgN/A
12:20 PM81 °FPassing clouds.14 mph37%30.15 "HgN/A
11:50 AM79 °FPassing clouds.13 mph39%30.18 "HgN/A
11:20 AM77 °FPassing clouds.12 mph42%30.18 "HgN/A
10:50 AM77 °FPassing clouds.12 mph44%30.18 "HgN/A
10:20 AM75 °FPassing clouds.10 mph47%30.18 "HgN/A
9:50 AM72 °FPassing clouds.12 mph53%30.18 "HgN/A
9:20 AM70 °FPassing clouds.12 mph57%30.18 "HgN/A
8:50 AM68 °FSunny.9 mph60%30.18 "Hg10 mi
8:20 AM66 °FSunny.10 mph68%30.18 "Hg10 mi
7:50 AM64 °FSunny.10 mph68%30.18 "Hg10 mi
7:20 AM63 °FSunny.10 mph73%30.18 "Hg10 mi
6:50 AM63 °FPassing clouds.9 mph73%30.18 "HgN/A
6:20 AM61 °FSunny.6 mph77%30.18 "Hg10 mi
5:50 AM59 °FClear.7 mph82%30.18 "Hg10 mi
5:20 AM57 °FClear.6 mph82%30.18 "Hg10 mi
4:50 AM55 °FClear.6 mph88%30.18 "Hg10 mi
4:20 AM57 °FClear.6 mph82%30.18 "Hg10 mi
3:50 AM57 °FClear.7 mph82%30.18 "Hg10 mi
3:20 AM59 °FClear.5 mph77%30.18 "Hg10 mi
2:50 AM59 °FClear.6 mph77%30.18 "Hg10 mi
2:20 AM59 °FClear.7 mph82%30.18 "Hg10 mi
1:50 AM59 °FClear.8 mph77%30.18 "Hg10 mi
1:20 AM61 °FClear.7 mph72%30.18 "Hg10 mi
Weather by CustomWeather, © 2015

See weather overviewHow to use our weather pages